星链-38014(STARLINK-38014)
导读
STARLINK-38014(NORAD 69721,国际标识2025-158M)是SpaceX星链星座的低轨互联网卫星,2025年由猎鹰9号火箭发射入轨,设计寿命约5年。该卫星运行于约550公里高度的近地轨道,为Starlink V2 mini型号,依托星座组网可提供超1Gbps的高速低时延互联网服务,填补通信欠发达地区网络覆盖缺口。作为全球最大卫星星座的组成单元,其需配合SpaceX空间安全机制开展轨道机动,同时也因对光学/射电天文观测存在干扰受到学界关注。截至2026年7月,该卫星处于正常在轨运行状态。
Basic Information
目录编号:
69721
目录名称:
STARLINK-38014
国际标识:
2026-147T
轨道中心:
EARTH
卫星名称:
星链-38014
卫星全名:
星链-38014(STARLINK-38014)
卫星状态:
在轨 (已飞行68 天)
发射日期:
2026-06-28 UTC
国别 :
美国
(US)
星等 :
--
Orbit Information
| 数据来源 | 国际轨道数据 | AOE轨道数据 |
| 星历时间 | 2026-09-03T09:28:41+0800 1天前 查看轨道信息 | 2026-09-03T22:00:00+0800 15小时前 查看轨道信息 |
| 半长轴 | 6843.663km | 6843.707km |
| 偏心率 | 0.0001427 | 0.0001084 |
| 轨道倾角 | 97.283° | 97.286° |
| 近地点辐角 | 83.821° | 96.326° |
| 升交点赤经 | 282.709° | 283.224° |
| 平近点角 | 276.320° | 262.144° |
| 近地点 | 464.549km | 464.828km |
| 远地点 | 466.503km | 466.312km |
| 周期 | 93.906分钟 | 93.907分钟 |
| 每日圈数 | 15.334509 | 15.334362 |
Detailed Information
固有亮度:
5
最大亮度:
2.5
卫星平台:
Starlink V1.0
覆盖范围:
全球
运营商:
太空探索技术公司
运营商所在国:
美国
制造商(研发单位):
太空探索技术公司
制造商所在国:
美国
使用方式:
暂无
Satellite Introduction
Starlink 计划是 SpaceX 推出的全球卫星互联网项目,通过发射低轨道卫星,为全球尤其是偏远地区提供高速、低延迟的互联网服务。自 2019 年起,Starlink 已部署数千颗卫星,旨在缩小全球数字鸿沟,推动互联网普及。该项目还为军事、航空等行业提供通信支持,带来广泛经济效益。
2D Orbit Map
3D Orbit Map
Orbit Altitude Analysis Chart
Orbit Inclination Analysis Chart
Orbit Comprehensive Analysis Chart
View Comprehensive ChartConjunction Data List
| Event ID | Objects | TCA | Miss Dist (km) | Collision Risk Probability | Collision Risk Index (CRI) | Action |
|---|---|---|---|---|---|---|
| CDM_260830-123206-488006-972121 |
OBJECT E
(64880)
STARLINK-38014
(69721) | 2026-08-30T 12:32:12+0000 |
1.782 km
极远距离 | 2.719275E-6 低风险 | 0.44 | |
| CDM_260905-080405-302506-972121 |
STARLINK-4218
(53025)
STARLINK-38014
(69721) | 2026-09-05T 08:04:33+0000 |
1.985 km
极远距离 | 2.204887E-6 低风险 | 0.42 | |
| CDM_260905-072406-534506-972121 |
STARLINK-34831
(65345)
STARLINK-38014
(69721) | 2026-09-05T 07:24:57+0000 |
2.478 km
极远距离 | 1.774859E-6 低风险 | 0.4 | |
| CDM_260903-090506-418706-972121 |
STARLINK-33934
(64187)
STARLINK-38014
(69721) | 2026-09-03T 09:05:59+0000 |
2.612 km
极远距离 | 1.225207E-6 低风险 | 0.37 | |
| CDM_260904-075005-901306-972121 |
STARLINK-31389
(59013)
STARLINK-38014
(69721) | 2026-09-04T 07:50:33+0000 |
2.603 km
极远距离 | 1.118425E-6 低风险 | 0.36 |

